Flag for United Kingdom

Past Weather in Blandford Forum, England, United Kingdom — Yesterday and Last 2 Weeks

Now
52 °F

Passing clouds.


Feels Like: 49 °F
Forecast: 55 / 52 °F
Wind: 7 mph from West

Location: Bournemouth Airport
Current Time: Oct 1, 2020 at 10:14:21 am
Latest Report: Oct 1, 2020 at 9:20 am
Visibility: N/A
Pressure29.50 "Hg
Humidity: 100%
Dew Point: 52 °F
Location of Blandford ForumLocation

Past Weather in Blandford Forum — Graph

°F

Blandford Forum Temperature Yesterday

Maximum temperature yesterday: 61 °F (at 9:20 am)
Minimum temperature yesterday: 43 °F (at 5:50 am)
Average temperature yesterday: 58 °F

High & Low Weather Summary for the Past Weeks

 TemperatureHumidityPressure
High81 °F (Sep 16, 2:20 pm)100% (Sep 16, 8:20 am)30.36 "Hg (Sep 16, 8:20 am)
Low32 °F (Sep 28, 7:20 am)39% (Sep 27, 5:20 pm)29.30 "Hg (Sep 24, 7:20 pm)
Average59 °F72%29.90 "Hg
* Reported Sep 16 8:20 am — Oct 1 8:50 am, Blandford Forum. Weather by CustomWeather, © 2020

Note: Actual official high and low records may vary slightly from our data, if they occured in-between our weather recording intervals... More about our weather records

Blandford Forum Weather History for the Previous 24 Hours

Scroll right to see more
 ConditionsComfort  
Time TempWeatherWind HumidityBarometerVisibility
8:50 am
Thu, Oct 1
50 °FPassing clouds.8 mph100%29.53 "HgN/A
8:20 am48 °FFog.3 mph100%29.53 "HgN/A
7:50 am46 °FFog.2 mph100%29.53 "HgN/A
7:20 am46 °FFog.5 mph100%29.53 "HgN/A
6:50 am46 °FPassing clouds.5 mph100%29.50 "HgN/A
6:20 am48 °FPassing clouds.5 mph100%29.50 "HgN/A
5:50 am46 °FPassing clouds.5 mph100%29.50 "HgN/A
9:20 pm
Wed, Sep 30
55 °FPassing clouds.6 mph100%29.56 "HgN/A
8:50 pm57 °FPassing clouds.7 mph94%29.56 "HgN/A
8:20 pm57 °FPassing clouds.8 mph94%29.56 "HgN/A
7:50 pm59 °FLight rain. Passing clouds.24 mph88%29.56 "Hg5 mi
6:50 pm59 °FLight rain. Passing clouds.20 mph94%29.56 "Hg4 mi
6:20 pm59 °FLight rain. Partly sunny.20 mph94%29.56 "Hg5 mi
5:50 pm59 °FLight rain. Broken clouds.20 mph94%29.59 "Hg4 mi
5:20 pm59 °FLight rain. Broken clouds.20 mph94%29.59 "HgN/A
4:50 pm59 °FLight rain. Broken clouds.18 mph94%29.62 "Hg4 mi
4:20 pm59 °FSprinkles. Partly sunny.21 mph88%29.62 "Hg4 mi
3:50 pm59 °FSprinkles. Partly sunny.21 mph88%29.65 "Hg4 mi
3:20 pm59 °FSprinkles. Broken clouds.16 mph94%29.65 "Hg4 mi
2:50 pm59 °FSprinkles. Broken clouds.15 mph94%29.65 "Hg4 mi
2:20 pm61 °FSprinkles. Broken clouds.12 mph83%29.68 "Hg4 mi
1:50 pm59 °FSprinkles. Broken clouds.13 mph94%29.68 "Hg5 mi
1:20 pm61 °FSprinkles. Broken clouds.16 mph88%29.68 "HgN/A
12:50 pm61 °FSprinkles. Broken clouds.16 mph88%29.71 "HgN/A
12:20 pm61 °FSprinkles. Broken clouds.16 mph88%29.71 "HgN/A
11:50 am61 °FLight rain. Broken clouds.16 mph88%29.74 "HgN/A
11:20 am61 °FLight rain. Broken clouds.16 mph88%29.74 "HgN/A
10:50 am61 °FBroken clouds.17 mph83%29.74 "HgN/A
10:20 am61 °FBroken clouds.14 mph83%29.77 "HgN/A
Weather by CustomWeather, © 2020

See weather overview